Weather History for KIAB - October, 2013

Change the Weather History Date:

Friday, October 11, 2013

  Actual Average Record
Temperature  
Mean Temperature 72 °F -  
Max Temperature 82 °F 70 °F 82 °F (2013)
Min Temperature 61 °F 48 °F 39 °F (2006)
Cooling Degree Days 8    
Growing Degree Days 22 (Base 50)    
Moisture  
Dew Point 52 °F    
Average Humidity 60    
Maximum Humidity 90    
Minimum Humidity 15    
Precipitation  
Precipitation 0.00 in - - ()
Sea Level Pressure  
Sea Level Pressure 29.78 in    
Wind  
Wind Speed 17 mph (South)    
Max Wind Speed 23 mph    
Max Gust Speed 34 mph    
Visibility 10 miles    
Events Rain    
Averages and records for this station are not official NWS values.
T = Trace of Precipitation, MM = Missing Value Source: NWS Daily Summary

Daily Weather History Graph

Daily Weather History Graph

Search for Another Location

Airport or City:

Trip Planner

Search our weather history database for the weather conditions in past years. The results will help you decide how hot, cold, wet, or windy it might be!

Date:

Astronomy

Oct. 11, 2013 Rise Set
Actual Time 7:33 AM CDT 6:56 PM CDT
Civil Twilight 7:07 AM CDT 7:23 PM CDT
Nautical Twilight 6:37 AM CDT 7:53 PM CDT
Astronomical Twilight 6:06 AM CDT 8:23 PM CDT
Moon 2:13 PM CDT (10/11) No Moon Set
Length of Visible Light 12h 15m
Length of Day
11h 23m
Waxing Crescent, 47% of the Moon is Illuminated
Oct 11
Waxing Crescent
Oct 11
First Quarter
Oct 18
Full
Oct 26
Last Quarter
Nov 3
New

Hourly Weather History & Observations

Time (CDT) Temp. Heat Index Dew Point Humidity Pressure Visibility Wind Dir Wind Speed Gust Speed Precip Events Conditions
12:58 AM 64.9 °F - 57.7 °F 77% 29.80 in 10.0 mi SE 17.3 mph 23.0 mph N/A   Clear
1:58 AM 64.4 °F - 57.6 °F 78% 29.83 in 10.0 mi South 15.0 mph - N/A   Clear
2:58 AM 64.9 °F - 57.4 °F 76% 29.78 in 10.0 mi SE 18.4 mph 28.8 mph N/A   Scattered Clouds
3:58 AM 65.8 °F - 57.9 °F 76% 29.77 in 10.0 mi SSE 21.9 mph 28.8 mph N/A   Mostly Cloudy
4:22 AM 66.2 °F - 59.0 °F 78% 29.79 in 10.0 mi SSE 21.9 mph 34.5 mph N/A Rain Light Rain
4:38 AM 64.4 °F - 60.8 °F 88% 29.77 in 10.0 mi SE 20.7 mph 31.1 mph N/A   Mostly Cloudy
4:58 AM 65.1 °F - 60.3 °F 84% 29.75 in 10.0 mi SSE 21.9 mph 28.8 mph 0.00 in   Mostly Cloudy
5:58 AM 65.5 °F - 59.9 °F 82% 29.75 in 10.0 mi SSE 18.4 mph 27.6 mph N/A   Mostly Cloudy
6:58 AM 64.9 °F - 60.1 °F 84% 29.75 in 10.0 mi SSE 17.3 mph 25.3 mph N/A   Clear
7:58 AM 64.2 °F - 61.0 °F 89% 29.74 in 10.0 mi SSE 18.4 mph 24.2 mph N/A   Clear
8:58 AM 65.3 °F - 62.2 °F 90% 29.76 in 10.0 mi SSE 19.6 mph 24.2 mph N/A   Partly Cloudy
9:58 AM 68.4 °F - 63.5 °F 84% 29.76 in 10.0 mi South 20.7 mph - N/A   Scattered Clouds
10:38 AM 71.6 °F - 64.4 °F 78% 29.78 in 10.0 mi South 17.3 mph 24.2 mph N/A   Mostly Cloudy
10:58 AM 71.4 °F - 64.6 °F 79% 29.76 in 10.0 mi South 17.3 mph 27.6 mph N/A   Overcast
11:43 AM 75.2 °F - 64.4 °F 69% 29.78 in 10.0 mi South 23.0 mph 28.8 mph N/A   Scattered Clouds
11:58 AM 73.8 °F - 63.1 °F 69% 29.76 in 10.0 mi South 21.9 mph 26.5 mph N/A   Scattered Clouds
12:58 PM 77.2 °F - 61.9 °F 59% 29.75 in 10.0 mi South 17.3 mph 26.5 mph N/A   Partly Cloudy
1:58 PM 80.6 °F 80.5 °F 55.8 °F 42% 29.73 in 10.0 mi South 21.9 mph 28.8 mph N/A   Clear
2:58 PM 81.9 °F - 48.4 °F 31% 29.70 in 10.0 mi South 20.7 mph 27.6 mph N/A   Clear
3:58 PM 82.8 °F - 39.6 °F 22% 29.71 in 10.0 mi SSW 15.0 mph 23.0 mph N/A   Clear
4:58 PM 81.3 °F - 34.5 °F 19% 29.73 in 10.0 mi SSW 18.4 mph 23.0 mph N/A   Clear
5:58 PM 79.2 °F - 27.9 °F 15% 29.75 in 10.0 mi SW 13.8 mph - N/A   Clear
6:58 PM 73.2 °F - 31.1 °F 21% 29.77 in 10.0 mi SW 5.8 mph - N/A   Clear
7:58 PM 71.8 °F - 31.3 °F 22% 29.80 in 10.0 mi West 4.6 mph - N/A   Clear
8:58 PM 67.6 °F - 35.8 °F 31% 29.82 in 10.0 mi WNW 4.6 mph - N/A   Clear
9:58 PM 65.1 °F - 36.3 °F 34% 29.86 in 10.0 mi NW 4.6 mph - N/A   Clear
10:58 PM 63.9 °F - 43.0 °F 47% 29.88 in 10.0 mi NNW 13.8 mph - N/A   Clear
11:58 PM 61.9 °F - 45.0 °F 54% 29.91 in 10.0 mi NNW 11.5 mph - N/A   Clear